Time,TemperatureF,DewpointF,PressureIn,WindDirection,WindDirectionDegrees,WindSpeedMPH,WindSpeedGustMPH,Humidity,HourlyPrecipIn,Conditions,Clouds,dailyrainin,SoftwareType,DateUTC
2013-03-09 00:00:00,36.8,26.5,30.07,North,355,4.0,9.0,66,0.00,,,0.05,Wunderground PWS Mod,2013-03-09 05:00:00,
2013-03-09 00:03:00,36.8,26.5,30.07,NE,48,4.0,9.0,66,0.00,,,0.05,Wunderground PWS Mod,2013-03-09 05:03:00,
2013-03-09 00:08:00,36.6,26.3,30.07,North,360,4.0,12.0,66,0.00,,,0.00,Wunderground PWS Mod,2013-03-09 05:08:00,
2013-03-09 00:10:00,36.5,25.8,30.07,North,0,4.0,12.0,65,0.01,,,0.02,Wunderground PWS Mod,2013-03-09 05:10:00,
2013-03-09 00:14:00,36.6,25.9,30.07,NE,55,4.0,12.0,65,0.00,,,0.00,Wunderground PWS Mod,2013-03-09 05:14:00,
2013-03-09 00:19:00,36.6,25.9,30.07,ENE,57,4.0,12.0,65,0.00,,,0.00,Wunderground PWS Mod,2013-03-09 05:19:00,
2013-03-09 00:25:00,36.6,25.9,30.07,NE,34,4.0,12.0,65,0.00,,,0.00,Wunderground PWS Mod,2013-03-09 05:25:00,
2013-03-09 00:30:00,36.5,25.8,30.07,NNE,15,4.0,12.0,65,0.00,,,0.00,Wunderground PWS Mod,2013-03-09 05:30:00,
2013-03-09 00:35:00,36.4,25.7,30.07,NNE,19,4.0,12.0,65,0.00,,,0.00,Wunderground PWS Mod,2013-03-09 05:35:00,
2013-03-09 00:41:00,36.4,25.7,30.07,North,9,4.0,12.0,65,0.00,,,0.00,Wunderground PWS Mod,2013-03-09 05:41:00,
2013-03-09 00:46:00,36.2,25.6,30.07,NNE,24,4.0,12.0,65,0.00,,,0.00,Wunderground PWS Mod,2013-03-09 05:46:00,
2013-03-09 00:51:00,36.2,25.6,30.08,NNW,340,4.0,12.0,65,0.00,,,0.00,Wunderground PWS Mod,2013-03-09 05:51:00,
2013-03-09 00:56:00,36.2,25.6,30.08,NNW,342,4.0,12.0,65,0.00,,,0.00,Wunderground PWS Mod,2013-03-09 05:56:00,
2013-03-09 01:01:00,36.2,25.2,30.08,NW,304,4.0,12.0,64,0.00,,,0.00,Wunderground PWS Mod,2013-03-09 06:01:00,
2013-03-09 01:07:00,36.3,25.3,30.09,NNW,342,5.0,12.0,64,0.00,,,0.00,Wunderground PWS Mod,2013-03-09 06:07:00,
2013-03-09 01:12:00,36.2,25.2,30.09,NE,36,4.0,12.0,64,0.00,,,0.01,Wunderground PWS Mod,2013-03-09 06:12:00,
2013-03-09 01:17:00,36.2,25.2,30.09,NNE,27,4.0,12.0,64,0.00,,,0.01,Wunderground PWS Mod,2013-03-09 06:17:00,
2013-03-09 01:22:00,36.1,25.5,30.09,NE,37,4.0,12.0,65,0.00,,,0.01,Wunderground PWS Mod,2013-03-09 06:22:00,
2013-03-09 01:27:00,35.8,25.2,30.09,North,5,3.0,12.0,65,0.00,,,0.01,Wunderground PWS Mod,2013-03-09 06:27:00,
2013-03-09 01:33:00,35.8,25.2,30.09,North,360,3.0,12.0,65,0.00,,,0.01,Wunderground PWS Mod,2013-03-09 06:33:00,
2013-03-09 01:37:00,35.9,25.3,30.09,North,10,4.0,12.0,65,0.00,,,0.01,Wunderground PWS Mod,2013-03-09 06:37:00,
2013-03-09 01:43:00,35.9,24.9,30.08,ENE,66,3.0,12.0,64,0.00,,,0.01,Wunderground PWS Mod,2013-03-09 06:43:00,
2013-03-09 01:48:00,35.8,24.8,30.08,NE,40,3.0,12.0,64,0.00,,,0.01,Wunderground PWS Mod,2013-03-09 06:48:00,
2013-03-09 01:54:00,35.7,24.7,30.08,NNE,19,4.0,12.0,64,0.00,,,0.01,Wunderground PWS Mod,2013-03-09 06:54:00,
2013-03-09 01:59:00,35.7,24.7,30.08,NE,55,3.0,12.0,64,0.00,,,0.01,Wunderground PWS Mod,2013-03-09 06:59:00,
2013-03-09 02:04:00,36.0,24.6,30.08,NE,53,4.0,12.0,63,0.00,,,0.01,Wunderground PWS Mod,2013-03-09 07:04:00,
2013-03-09 02:10:00,35.9,24.5,30.08,NE,49,4.0,12.0,63,0.00,,,0.01,Wunderground PWS Mod,2013-03-09 07:10:00,
2013-03-09 02:15:00,35.8,24.4,30.08,North,5,4.0,12.0,63,0.00,,,0.01,Wunderground PWS Mod,2013-03-09 07:15:00,
2013-03-09 02:21:00,35.7,24.7,30.08,NE,36,3.0,12.0,64,0.00,,,0.01,Wunderground PWS Mod,2013-03-09 07:21:00,
2013-03-09 02:26:00,35.4,24.8,30.08,NE,55,3.0,12.0,65,0.00,,,0.01,Wunderground PWS Mod,2013-03-09 07:26:00,
2013-03-09 02:31:00,35.2,24.2,30.08,ENE,65,4.0,12.0,64,0.00,,,0.01,Wunderground PWS Mod,2013-03-09 07:31:00,
2013-03-09 02:36:00,35.3,24.3,30.08,NE,55,4.0,12.0,64,0.00,,,0.01,Wunderground PWS Mod,2013-03-09 07:36:00,
2013-03-09 02:42:00,35.3,24.3,30.07,ENE,69,4.0,12.0,64,0.00,,,0.01,Wunderground PWS Mod,2013-03-09 07:42:00,
2013-03-09 02:47:00,35.3,24.3,30.07,NNE,33,4.0,12.0,64,0.00,,,0.01,Wunderground PWS Mod,2013-03-09 07:47:00,
2013-03-09 02:53:00,35.2,23.9,30.07,NNE,23,3.0,12.0,63,0.00,,,0.01,Wunderground PWS Mod,2013-03-09 07:53:00,
2013-03-09 02:59:00,35.4,23.7,30.07,North,350,4.0,12.0,62,0.00,,,0.01,Wunderground PWS Mod,2013-03-09 07:59:00,
2013-03-09 03:04:00,35.3,24.0,30.07,NNE,22,4.0,12.0,63,0.00,,,0.01,Wunderground PWS Mod,2013-03-09 08:04:00,
2013-03-09 03:10:00,35.4,23.7,30.07,NE,44,4.0,12.0,62,0.00,,,0.01,Wunderground PWS Mod,2013-03-09 08:10:00,
2013-03-09 03:16:00,35.2,23.9,30.07,NNE,28,3.0,12.0,63,0.00,,,0.01,Wunderground PWS Mod,2013-03-09 08:16:00,
2013-03-09 03:21:00,35.1,23.4,30.07,NNW,338,3.0,12.0,62,0.00,,,0.01,Wunderground PWS Mod,2013-03-09 08:21:00,
2013-03-09 03:26:00,35.0,23.7,30.07,NNE,32,3.0,12.0,63,0.00,,,0.01,Wunderground PWS Mod,2013-03-09 08:26:00,
2013-03-09 03:31:00,35.1,23.4,30.07,ENE,65,3.0,12.0,62,0.00,,,0.01,Wunderground PWS Mod,2013-03-09 08:31:00,
2013-03-09 03:37:00,35.0,23.7,30.07,NNE,30,3.0,12.0,63,0.00,,,0.01,Wunderground PWS Mod,2013-03-09 08:37:00,
2013-03-09 03:43:00,35.0,23.3,30.07,North,355,3.0,12.0,62,0.00,,,0.01,Wunderground PWS Mod,2013-03-09 08:43:00,
2013-03-09 03:48:00,35.0,23.7,30.08,ENE,58,3.0,12.0,63,0.00,,,0.02,Wunderground PWS Mod,2013-03-09 08:48:00,
2013-03-09 03:54:00,35.0,22.9,30.08,North,9,3.0,12.0,61,0.00,,,0.02,Wunderground PWS Mod,2013-03-09 08:54:00,
2013-03-09 04:00:00,34.9,23.2,30.08,NE,53,3.0,12.0,62,0.00,,,0.02,Wunderground PWS Mod,2013-03-09 09:00:00,
2013-03-09 04:05:00,34.8,22.7,30.08,North,350,3.0,12.0,61,0.00,,,0.02,Wunderground PWS Mod,2013-03-09 09:05:00,
2013-03-09 04:11:00,34.8,23.1,30.09,NE,39,3.0,10.0,62,0.00,,,0.02,Wunderground PWS Mod,2013-03-09 09:11:00,
2013-03-09 04:14:00,34.8,22.7,30.08,NNE,23,3.0,10.0,61,0.01,,,0.02,Wunderground PWS Mod,2013-03-09 09:14:00,
2013-03-09 04:16:00,34.8,23.1,30.09,NW,317,4.0,10.0,62,0.00,,,0.02,Wunderground PWS Mod,2013-03-09 09:16:00,
2013-03-09 04:21:00,34.6,22.9,30.09,NE,49,3.0,10.0,62,0.00,,,0.02,Wunderground PWS Mod,2013-03-09 09:21:00,
2013-03-09 04:26:00,34.7,23.0,30.10,North,5,3.0,10.0,62,0.00,,,0.02,Wunderground PWS Mod,2013-03-09 09:26:00,
2013-03-09 04:32:00,34.7,23.0,30.10,NE,43,4.0,10.0,62,0.00,,,0.02,Wunderground PWS Mod,2013-03-09 09:32:00,
2013-03-09 04:37:00,34.4,22.7,30.10,NE,52,3.0,10.0,62,0.00,,,0.02,Wunderground PWS Mod,2013-03-09 09:37:00,
2013-03-09 04:43:00,34.6,22.9,30.10,NE,56,3.0,10.0,62,0.00,,,0.02,Wunderground PWS Mod,2013-03-09 09:43:00,
2013-03-09 04:48:00,34.3,22.6,30.10,North,349,3.0,10.0,62,0.00,,,0.02,Wunderground PWS Mod,2013-03-09 09:48:00,
2013-03-09 04:54:00,34.3,22.6,30.10,NNE,30,3.0,10.0,62,0.00,,,0.02,Wunderground PWS Mod,2013-03-09 09:54:00,
2013-03-09 05:00:00,34.4,22.7,30.10,NNW,327,3.0,10.0,62,0.00,,,0.02,Wunderground PWS Mod,2013-03-09 10:00:00,
2013-03-09 05:05:00,34.3,23.0,30.11,NE,38,3.0,10.0,63,0.00,,,0.02,Wunderground PWS Mod,2013-03-09 10:05:00,
2013-03-09 05:10:00,34.1,22.8,30.11,North,9,4.0,10.0,63,0.00,,,0.02,Wunderground PWS Mod,2013-03-09 10:10:00,
2013-03-09 05:15:00,34.1,23.2,30.11,NE,46,4.0,10.0,64,0.00,,,0.02,Wunderground PWS Mod,2013-03-09 10:15:00,
2013-03-09 05:21:00,33.9,23.0,30.11,NNW,340,3.0,10.0,64,0.00,,,0.02,Wunderground PWS Mod,2013-03-09 10:21:00,
2013-03-09 05:26:00,34.1,22.8,30.11,North,10,3.0,10.0,63,0.00,,,0.02,Wunderground PWS Mod,2013-03-09 10:26:00,
2013-03-09 05:31:00,34.1,22.4,30.11,NE,37,3.0,10.0,62,0.00,,,0.02,Wunderground PWS Mod,2013-03-09 10:31:00,
2013-03-09 05:36:00,34.2,22.5,30.11,NE,41,3.0,10.0,62,0.00,,,0.02,Wunderground PWS Mod,2013-03-09 10:36:00,
2013-03-09 05:42:00,33.9,22.6,30.11,NNE,22,3.0,10.0,63,0.00,,,0.02,Wunderground PWS Mod,2013-03-09 10:42:00,
2013-03-09 05:47:00,33.8,22.9,30.11,ENE,58,3.0,10.0,64,0.00,,,0.02,Wunderground PWS Mod,2013-03-09 10:47:00,
2013-03-09 05:52:00,34.0,22.7,30.12,NNW,346,4.0,10.0,63,0.00,,,0.02,Wunderground PWS Mod,2013-03-09 10:52:00,
2013-03-09 05:57:00,34.2,22.5,30.12,NE,51,4.0,10.0,62,0.00,,,0.02,Wunderground PWS Mod,2013-03-09 10:57:00,
2013-03-09 06:04:00,34.3,22.2,30.13,NE,55,4.0,10.0,61,0.00,,,0.02,Wunderground PWS Mod,2013-03-09 11:04:00,
2013-03-09 06:09:00,34.2,22.1,30.13,NNE,29,3.0,10.0,61,0.00,,,0.02,Wunderground PWS Mod,2013-03-09 11:09:00,
2013-03-09 06:15:00,34.2,22.1,30.13,NNE,29,255.0,255.0,61,0.00,,,0.02,Wunderground PWS Mod,2013-03-09 11:15:00,
2013-03-09 06:20:00,-999.9,-99.9,30.13,North,32767,255.0,255.0,255,-99.99,,,0.02,Wunderground PWS Mod,2013-03-09 11:20:00,
2013-03-09 06:25:00,-999.9,-99.9,30.13,North,32767,255.0,255.0,255,-99.99,,,0.02,Wunderground PWS Mod,2013-03-09 11:25:00,
2013-03-09 06:31:00,-999.9,-99.9,30.13,North,32767,255.0,255.0,255,-99.99,,,0.02,Wunderground PWS Mod,2013-03-09 11:31:00,
2013-03-09 06:36:00,-999.9,-99.9,30.13,North,32767,255.0,255.0,255,-99.99,,,0.02,Wunderground PWS Mod,2013-03-09 11:36:00,
2013-03-09 06:41:00,-999.9,-99.9,30.13,North,32767,255.0,255.0,255,-99.99,,,0.02,Wunderground PWS Mod,2013-03-09 11:41:00,
2013-03-09 06:46:00,-999.9,-99.9,30.14,North,32767,255.0,255.0,255,-99.99,,,0.02,Wunderground PWS Mod,2013-03-09 11:46:00,
2013-03-09 06:52:00,-999.9,-99.9,30.14,North,32767,255.0,255.0,255,-99.99,,,0.02,Wunderground PWS Mod,2013-03-09 11:52:00,
2013-03-09 06:57:00,-999.9,-99.9,30.14,North,32767,255.0,255.0,255,-99.99,,,0.02,Wunderground PWS Mod,2013-03-09 11:57:00,
2013-03-09 07:03:00,-999.9,-99.9,30.15,North,32767,255.0,255.0,255,-99.99,,,0.02,Wunderground PWS Mod,2013-03-09 12:03:00,
2013-03-09 07:08:00,-999.9,-99.9,30.15,North,32767,255.0,255.0,255,-99.99,,,0.02,Wunderground PWS Mod,2013-03-09 12:08:00,
2013-03-09 07:13:00,-999.9,-99.9,30.15,North,32767,255.0,255.0,255,-99.99,,,0.02,Wunderground PWS Mod,2013-03-09 12:13:00,
2013-03-09 07:19:00,35.5,22.2,30.15,NNE,32,255.0,255.0,58,0.00,,,0.02,Wunderground PWS Mod,2013-03-09 12:19:00,
2013-03-09 07:24:00,35.7,22.4,30.15,ENE,63,5.0,10.0,58,0.00,,,0.02,Wunderground PWS Mod,2013-03-09 12:24:00,
2013-03-09 07:30:00,35.8,22.5,30.15,NNE,16,5.0,10.0,58,0.00,,,0.02,Wunderground PWS Mod,2013-03-09 12:30:00,
2013-03-09 07:35:00,36.0,22.2,30.15,ENE,57,5.0,10.0,57,0.00,,,0.02,Wunderground PWS Mod,2013-03-09 12:35:00,
2013-03-09 07:40:00,36.3,22.5,30.15,NNW,338,6.0,10.0,57,0.00,,,0.02,Wunderground PWS Mod,2013-03-09 12:40:00,
2013-03-09 07:45:00,36.3,22.1,30.15,NE,35,5.0,10.0,56,0.00,,,0.02,Wunderground PWS Mod,2013-03-09 12:45:00,
2013-03-09 07:51:00,36.7,22.0,30.16,WNW,286,5.0,10.0,55,0.00,,,0.02,Wunderground PWS Mod,2013-03-09 12:51:00,
2013-03-09 07:56:00,36.9,22.2,30.16,NE,47,5.0,12.0,55,0.00,,,0.02,Wunderground PWS Mod,2013-03-09 12:56:00,
2013-03-09 08:01:00,37.3,22.2,30.16,NNE,32,6.0,18.0,54,0.00,,,0.02,Wunderground PWS Mod,2013-03-09 13:01:00,
2013-03-09 08:07:00,37.5,22.3,30.15,NE,43,6.0,18.0,54,0.00,,,0.02,Wunderground PWS Mod,2013-03-09 13:07:00,
2013-03-09 08:10:00,37.3,22.2,30.16,NE,45,6.0,18.0,54,0.00,,,0.02,Wunderground PWS Mod,2013-03-09 13:10:00,
2013-03-09 08:12:00,37.9,22.3,30.15,NE,43,6.0,18.0,53,0.00,,,0.02,Wunderground PWS Mod,2013-03-09 13:12:00,
2013-03-09 08:18:00,38.1,22.0,30.15,ENE,63,7.0,18.0,52,0.00,,,0.02,Wunderground PWS Mod,2013-03-09 13:18:00,
2013-03-09 08:24:00,38.5,21.9,30.15,NNE,17,6.0,18.0,51,0.00,,,0.02,Wunderground PWS Mod,2013-03-09 13:24:00,
2013-03-09 08:29:00,38.8,22.2,30.15,WNW,288,6.0,18.0,51,0.00,,,0.02,Wunderground PWS Mod,2013-03-09 13:29:00,
2013-03-09 08:34:00,39.2,22.1,30.15,ENE,69,6.0,18.0,50,0.00,,,0.02,Wunderground PWS Mod,2013-03-09 13:34:00,
2013-03-09 08:40:00,39.5,21.9,30.15,NNW,346,6.0,18.0,49,0.00,,,0.02,Wunderground PWS Mod,2013-03-09 13:40:00,
2013-03-09 08:45:00,40.0,21.9,30.15,ENE,65,6.0,18.0,48,0.00,,,0.02,Wunderground PWS Mod,2013-03-09 13:45:00,
2013-03-09 08:51:00,40.6,22.4,30.15,ENE,70,5.0,18.0,48,0.00,,,0.02,Wunderground PWS Mod,2013-03-09 13:51:00,
2013-03-09 08:56:00,40.6,21.4,30.15,NE,51,6.0,18.0,46,0.00,,,0.02,Wunderground PWS Mod,2013-03-09 13:56:00,
2013-03-09 09:01:00,41.0,21.8,30.15,NW,326,6.0,18.0,46,0.00,,,0.02,Wunderground PWS Mod,2013-03-09 14:01:00,
2013-03-09 09:06:00,41.3,22.1,30.15,East,88,6.0,18.0,46,0.00,,,0.02,Wunderground PWS Mod,2013-03-09 14:06:00,
2013-03-09 09:12:00,41.5,21.2,30.15,East,94,6.0,18.0,44,0.00,,,0.02,Wunderground PWS Mod,2013-03-09 14:12:00,
2013-03-09 09:17:00,41.8,21.5,30.15,North,5,6.0,18.0,44,0.00,,,0.02,Wunderground PWS Mod,2013-03-09 14:17:00,
2013-03-09 09:22:00,42.0,21.1,30.15,NNW,344,6.0,18.0,43,0.00,,,0.02,Wunderground PWS Mod,2013-03-09 14:22:00,
2013-03-09 09:28:00,42.3,21.9,30.16,NNE,19,6.0,18.0,44,0.00,,,0.02,Wunderground PWS Mod,2013-03-09 14:28:00,
2013-03-09 09:34:00,42.4,21.5,30.16,NNW,329,6.0,18.0,43,0.00,,,0.02,Wunderground PWS Mod,2013-03-09 14:34:00,
2013-03-09 09:39:00,42.4,21.5,30.16,NNE,17,7.0,18.0,43,0.00,,,0.02,Wunderground PWS Mod,2013-03-09 14:39:00,
2013-03-09 09:45:00,42.6,21.6,30.16,ENE,58,6.0,18.0,43,0.00,,,0.02,Wunderground PWS Mod,2013-03-09 14:45:00,
2013-03-09 09:50:00,42.9,20.8,30.17,East,85,5.0,18.0,41,0.00,,,0.02,Wunderground PWS Mod,2013-03-09 14:50:00,
2013-03-09 09:55:00,43.2,22.2,30.17,East,93,4.0,18.0,43,0.00,,,0.02,Wunderground PWS Mod,2013-03-09 14:55:00,
2013-03-09 10:01:00,43.4,21.8,30.17,ENE,69,5.0,18.0,42,0.00,,,0.02,Wunderground PWS Mod,2013-03-09 15:01:00,
2013-03-09 10:06:00,43.7,21.5,30.17,NE,54,4.0,18.0,41,0.00,,,0.02,Wunderground PWS Mod,2013-03-09 15:06:00,
2013-03-09 10:12:00,43.7,21.5,30.17,East,79,5.0,18.0,41,0.00,,,0.02,Wunderground PWS Mod,2013-03-09 15:12:00,
2013-03-09 10:17:00,44.1,21.3,30.17,ENE,66,5.0,18.0,40,0.00,,,0.02,Wunderground PWS Mod,2013-03-09 15:17:00,
2013-03-09 10:22:00,44.5,21.6,30.17,NE,36,5.0,18.0,40,0.00,,,0.02,Wunderground PWS Mod,2013-03-09 15:22:00,
2013-03-09 10:27:00,44.3,20.9,30.17,ENE,59,6.0,18.0,39,0.00,,,0.02,Wunderground PWS Mod,2013-03-09 15:27:00,
2013-03-09 10:33:00,44.5,21.0,30.17,NE,54,7.0,18.0,39,0.00,,,0.02,Wunderground PWS Mod,2013-03-09 15:33:00,
2013-03-09 10:38:00,45.0,22.1,30.17,NNE,17,5.0,18.0,40,0.00,,,0.02,Wunderground PWS Mod,2013-03-09 15:38:00,
2013-03-09 10:44:00,45.5,20.7,30.17,NW,310,4.0,18.0,37,0.00,,,0.02,Wunderground PWS Mod,2013-03-09 15:44:00,
2013-03-09 10:50:00,45.7,21.5,30.17,NNE,12,5.0,18.0,38,0.00,,,0.02,Wunderground PWS Mod,2013-03-09 15:50:00,
2013-03-09 10:55:00,46.0,21.1,30.17,NNE,30,5.0,18.0,37,0.00,,,0.02,Wunderground PWS Mod,2013-03-09 15:55:00,
2013-03-09 11:00:00,46.4,20.9,30.17,NNW,341,5.0,18.0,36,0.00,,,0.02,Wunderground PWS Mod,2013-03-09 16:00:00,
2013-03-09 11:05:00,46.7,21.8,30.17,NE,50,4.0,18.0,37,0.00,,,0.02,Wunderground PWS Mod,2013-03-09 16:05:00,
2013-03-09 11:11:00,47.2,20.9,30.17,WNW,298,3.0,18.0,35,0.00,,,0.02,Wunderground PWS Mod,2013-03-09 16:11:00,
2013-03-09 11:16:00,47.6,22.6,30.18,NNE,23,3.0,18.0,37,0.00,,,0.02,Wunderground PWS Mod,2013-03-09 16:16:00,
2013-03-09 11:21:00,48.3,22.5,30.18,NNW,327,2.0,18.0,36,0.00,,,0.02,Wunderground PWS Mod,2013-03-09 16:21:00,
2013-03-09 11:26:00,48.6,22.8,30.18,West,260,2.0,18.0,36,0.00,,,0.02,Wunderground PWS Mod,2013-03-09 16:26:00,
2013-03-09 11:32:00,48.7,22.9,30.18,NW,324,2.0,18.0,36,0.00,,,0.02,Wunderground PWS Mod,2013-03-09 16:32:00,
2013-03-09 11:37:00,48.6,22.8,30.18,NE,52,4.0,18.0,36,0.00,,,0.02,Wunderground PWS Mod,2013-03-09 16:37:00,
2013-03-09 11:43:00,48.9,19.5,30.18,NE,42,4.0,18.0,31,0.00,,,0.02,Wunderground PWS Mod,2013-03-09 16:43:00,
2013-03-09 11:48:00,49.5,20.1,30.18,NW,322,3.0,18.0,31,0.00,,,0.02,Wunderground PWS Mod,2013-03-09 16:48:00,
2013-03-09 11:53:00,49.3,21.4,30.18,NNW,344,3.0,18.0,33,0.00,,,0.02,Wunderground PWS Mod,2013-03-09 16:53:00,
2013-03-09 11:59:00,49.3,21.4,30.18,NNE,19,3.0,18.0,33,0.00,,,0.02,Wunderground PWS Mod,2013-03-09 16:59:00,
2013-03-09 12:04:00,49.4,20.7,30.18,NW,324,3.0,18.0,32,0.00,,,0.02,Wunderground PWS Mod,2013-03-09 17:04:00,
2013-03-09 12:10:00,49.3,20.6,30.17,NE,52,4.0,11.0,32,0.00,,,0.02,Wunderground PWS Mod,2013-03-09 17:10:00,
2013-03-09 12:14:00,49.3,20.6,30.18,NNE,23,3.0,11.0,32,0.00,,,0.26,Wunderground PWS Mod,2013-03-09 17:14:00,
2013-03-09 12:15:00,49.8,21.1,30.17,NNE,25,3.0,11.0,32,0.00,,,0.02,Wunderground PWS Mod,2013-03-09 17:15:00,
2013-03-09 12:21:00,50.0,18.9,30.17,East,84,3.0,13.0,29,0.00,,,0.02,Wunderground PWS Mod,2013-03-09 17:21:00,
2013-03-09 12:26:00,49.1,19.0,30.17,NE,46,5.0,11.0,30,0.06,,,0.23,Wunderground PWS Mod,2013-03-09 17:26:00,
2013-03-09 12:32:00,49.1,19.0,30.17,NNE,16,4.0,11.0,30,0.04,,,0.23,Wunderground PWS Mod,2013-03-09 17:32:00,
2013-03-09 12:37:00,49.0,18.1,30.17,NE,40,3.0,11.0,29,0.04,,,0.24,Wunderground PWS Mod,2013-03-09 17:37:00,
2013-03-09 12:42:00,49.1,17.3,30.17,SE,143,4.0,11.0,28,0.04,,,0.24,Wunderground PWS Mod,2013-03-09 17:42:00,
2013-03-09 12:47:00,49.3,16.7,30.16,NNW,336,3.0,11.0,27,0.05,,,0.25,Wunderground PWS Mod,2013-03-09 17:47:00,
2013-03-09 12:53:00,49.6,16.9,30.16,NW,311,3.0,11.0,27,0.05,,,0.25,Wunderground PWS Mod,2013-03-09 17:53:00,
2013-03-09 12:58:00,49.9,18.0,30.16,ENE,67,3.0,11.0,28,0.04,,,0.25,Wunderground PWS Mod,2013-03-09 17:58:00,
2013-03-09 13:03:00,50.1,19.0,30.16,ENE,72,3.0,11.0,29,0.00,,,0.25,Wunderground PWS Mod,2013-03-09 18:03:00,
2013-03-09 13:08:00,50.3,17.5,30.16,ESE,116,3.0,11.0,27,0.00,,,0.25,Wunderground PWS Mod,2013-03-09 18:08:00,
2013-03-09 13:14:00,50.3,17.5,30.16,ENE,58,3.0,11.0,27,0.00,,,0.25,Wunderground PWS Mod,2013-03-09 18:14:00,
2013-03-09 13:19:00,50.4,16.8,30.16,East,94,3.0,11.0,26,0.00,,,0.25,Wunderground PWS Mod,2013-03-09 18:19:00,
2013-03-09 13:25:00,50.7,17.0,30.16,East,81,3.0,11.0,26,0.00,,,0.26,Wunderground PWS Mod,2013-03-09 18:25:00,
2013-03-09 13:30:00,51.0,18.1,30.16,ENE,61,2.0,11.0,27,0.00,,,0.26,Wunderground PWS Mod,2013-03-09 18:30:00,
2013-03-09 13:35:00,50.8,16.2,30.16,ESE,107,3.0,11.0,25,0.00,,,0.26,Wunderground PWS Mod,2013-03-09 18:35:00,
2013-03-09 13:40:00,50.6,18.6,30.16,ENE,65,3.0,11.0,28,0.00,,,0.26,Wunderground PWS Mod,2013-03-09 18:40:00,
2013-03-09 13:46:00,50.6,16.0,30.16,East,85,3.0,11.0,25,0.00,,,0.26,Wunderground PWS Mod,2013-03-09 18:46:00,
2013-03-09 13:52:00,50.9,15.3,30.16,East,96,4.0,11.0,24,0.00,,,0.26,Wunderground PWS Mod,2013-03-09 18:52:00,
2013-03-09 13:57:00,50.9,15.3,30.16,ENE,70,3.0,11.0,24,0.00,,,0.26,Wunderground PWS Mod,2013-03-09 18:57:00,
2013-03-09 14:03:00,50.8,15.2,30.16,East,85,4.0,11.0,24,0.00,,,0.26,Wunderground PWS Mod,2013-03-09 19:03:00,
2013-03-09 14:08:00,51.0,15.4,30.16,ENE,72,3.0,11.0,24,0.00,,,0.26,Wunderground PWS Mod,2013-03-09 19:08:00,
2013-03-09 14:14:00,51.1,14.5,30.16,ENE,67,3.0,11.0,23,0.00,,,0.26,Wunderground PWS Mod,2013-03-09 19:14:00,
2013-03-09 14:19:00,51.4,16.7,30.16,East,101,3.0,11.0,25,0.00,,,0.26,Wunderground PWS Mod,2013-03-09 19:19:00,
2013-03-09 14:25:00,51.2,16.5,30.15,NW,321,3.0,11.0,25,0.00,,,0.26,Wunderground PWS Mod,2013-03-09 19:25:00,
2013-03-09 14:30:00,51.3,17.5,30.15,East,101,3.0,11.0,26,0.00,,,0.26,Wunderground PWS Mod,2013-03-09 19:30:00,
2013-03-09 14:35:00,51.4,18.5,30.16,East,86,1.0,11.0,27,0.00,,,0.26,Wunderground PWS Mod,2013-03-09 19:35:00,
2013-03-09 14:41:00,51.5,15.8,30.16,East,92,2.0,11.0,24,0.00,,,0.26,Wunderground PWS Mod,2013-03-09 19:41:00,
2013-03-09 14:46:00,51.3,15.7,30.15,ESE,102,3.0,11.0,24,0.00,,,0.26,Wunderground PWS Mod,2013-03-09 19:46:00,
2013-03-09 14:51:00,51.3,15.7,30.15,East,88,2.0,11.0,24,0.00,,,0.26,Wunderground PWS Mod,2013-03-09 19:51:00,
2013-03-09 14:56:00,51.4,19.3,30.15,East,85,2.0,11.0,28,0.00,,,0.26,Wunderground PWS Mod,2013-03-09 19:56:00,
2013-03-09 15:02:00,51.3,17.5,30.15,East,95,2.0,11.0,26,0.00,,,0.26,Wunderground PWS Mod,2013-03-09 20:02:00,
2013-03-09 15:07:00,51.3,17.5,30.16,ENE,65,2.0,11.0,26,0.00,,,0.26,Wunderground PWS Mod,2013-03-09 20:07:00,
2013-03-09 15:13:00,51.4,18.5,30.16,East,101,2.0,11.0,27,0.00,,,0.26,Wunderground PWS Mod,2013-03-09 20:13:00,
2013-03-09 15:18:00,51.5,18.6,30.16,ESE,122,2.0,11.0,27,0.00,,,0.26,Wunderground PWS Mod,2013-03-09 20:18:00,
2013-03-09 15:24:00,51.6,16.9,30.16,NNE,17,1.0,11.0,25,0.00,,,0.26,Wunderground PWS Mod,2013-03-09 20:24:00,
2013-03-09 15:30:00,51.6,16.9,30.16,NE,46,2.0,11.0,25,0.00,,,0.26,Wunderground PWS Mod,2013-03-09 20:30:00,
2013-03-09 15:35:00,51.7,16.0,30.16,ENE,76,2.0,11.0,24,0.00,,,0.26,Wunderground PWS Mod,2013-03-09 20:35:00,
2013-03-09 15:40:00,51.9,17.1,30.17,ENE,69,3.0,11.0,25,0.00,,,0.26,Wunderground PWS Mod,2013-03-09 20:40:00,
2013-03-09 15:45:00,51.7,17.9,30.17,ENE,68,2.0,11.0,26,0.00,,,0.26,Wunderground PWS Mod,2013-03-09 20:45:00,
2013-03-09 15:51:00,51.8,16.1,30.17,East,84,1.0,11.0,24,0.00,,,0.26,Wunderground PWS Mod,2013-03-09 20:51:00,
2013-03-09 15:56:00,51.7,16.0,30.17,East,95,2.0,11.0,24,0.00,,,0.26,Wunderground PWS Mod,2013-03-09 20:56:00,
2013-03-09 16:02:00,51.5,15.8,30.18,North,10,2.0,11.0,24,0.00,,,0.26,Wunderground PWS Mod,2013-03-09 21:02:00,
2013-03-09 16:07:00,51.5,17.7,30.18,East,90,1.0,7.0,26,0.00,,,0.26,Wunderground PWS Mod,2013-03-09 21:07:00,
2013-03-09 16:12:00,51.5,15.8,30.18,East,90,2.0,7.0,24,0.00,,,0.26,Wunderground PWS Mod,2013-03-09 21:12:00,
2013-03-09 16:14:00,51.4,16.7,30.18,East,92,0.0,7.0,25,0.00,,,0.26,Wunderground PWS Mod,2013-03-09 21:14:00,
2013-03-09 16:19:00,51.3,15.7,30.19,ESE,102,1.0,7.0,24,0.00,,,0.26,Wunderground PWS Mod,2013-03-09 21:19:00,
2013-03-09 16:25:00,51.2,15.6,30.19,NNE,18,1.0,7.0,24,0.00,,,0.26,Wunderground PWS Mod,2013-03-09 21:25:00,
2013-03-09 16:30:00,51.2,15.6,30.19,NNE,18,0.0,7.0,24,0.00,,,0.26,Wunderground PWS Mod,2013-03-09 21:30:00,
2013-03-09 16:36:00,51.3,16.6,30.19,North,10,0.0,7.0,25,0.00,,,0.26,Wunderground PWS Mod,2013-03-09 21:36:00,
2013-03-09 16:41:00,51.2,16.5,30.19,NNE,24,0.0,7.0,25,0.00,,,0.26,Wunderground PWS Mod,2013-03-09 21:41:00,
2013-03-09 16:46:00,51.2,15.6,30.19,NE,42,0.0,7.0,24,0.00,,,0.26,Wunderground PWS Mod,2013-03-09 21:46:00,
2013-03-09 16:51:00,51.2,14.6,30.19,NE,42,0.0,7.0,23,0.00,,,0.26,Wunderground PWS Mod,2013-03-09 21:51:00,
2013-03-09 16:57:00,51.0,15.4,30.19,NE,42,0.0,7.0,24,0.00,,,0.26,Wunderground PWS Mod,2013-03-09 21:57:00,
2013-03-09 17:03:00,50.8,14.3,30.20,ENE,57,0.0,7.0,23,0.00,,,0.26,Wunderground PWS Mod,2013-03-09 22:03:00,
2013-03-09 17:08:00,50.6,14.1,30.20,ENE,74,1.0,7.0,23,0.00,,,0.26,Wunderground PWS Mod,2013-03-09 22:08:00,
2013-03-09 17:14:00,50.5,14.0,30.20,ENE,74,0.0,7.0,23,0.00,,,0.26,Wunderground PWS Mod,2013-03-09 22:14:00,
2013-03-09 17:19:00,50.3,15.8,30.20,ESE,123,0.0,7.0,25,0.00,,,0.26,Wunderground PWS Mod,2013-03-09 22:19:00,
2013-03-09 17:24:00,50.1,14.7,30.20,ESE,123,0.0,7.0,24,0.00,,,0.26,Wunderground PWS Mod,2013-03-09 22:24:00,
2013-03-09 17:29:00,50.1,15.6,30.21,ESE,123,0.0,7.0,25,0.00,,,0.26,Wunderground PWS Mod,2013-03-09 22:29:00,
2013-03-09 17:35:00,50.1,15.6,30.21,ESE,123,255.0,255.0,25,0.00,,,0.26,Wunderground PWS Mod,2013-03-09 22:35:00,
2013-03-09 17:40:00,-999.9,-99.9,30.21,North,32767,255.0,255.0,255,-99.99,,,0.26,Wunderground PWS Mod,2013-03-09 22:40:00,
2013-03-09 17:45:00,-999.9,-99.9,30.21,North,32767,255.0,255.0,255,-99.99,,,0.26,Wunderground PWS Mod,2013-03-09 22:45:00,
2013-03-09 17:51:00,-999.9,-99.9,30.21,North,32767,255.0,255.0,255,-99.99,,,0.26,Wunderground PWS Mod,2013-03-09 22:51:00,
2013-03-09 17:56:00,-999.9,-99.9,30.22,North,32767,255.0,255.0,255,-99.99,,,0.26,Wunderground PWS Mod,2013-03-09 22:56:00,
2013-03-09 18:01:00,-999.9,-99.9,30.22,North,32767,255.0,255.0,255,-99.99,,,0.26,Wunderground PWS Mod,2013-03-09 23:01:00,
2013-03-09 18:06:00,-999.9,-99.9,30.22,North,32767,255.0,255.0,255,-99.99,,,0.26,Wunderground PWS Mod,2013-03-09 23:06:00,
2013-03-09 18:12:00,-999.9,-99.9,30.22,North,32767,255.0,255.0,255,-99.99,,,0.26,Wunderground PWS Mod,2013-03-09 23:12:00,
2013-03-09 18:17:00,-999.9,-99.9,30.22,North,32767,255.0,255.0,255,-99.99,,,0.26,Wunderground PWS Mod,2013-03-09 23:17:00,
2013-03-09 18:23:00,-999.9,-99.9,30.22,North,32767,255.0,255.0,255,-99.99,,,0.26,Wunderground PWS Mod,2013-03-09 23:23:00,
2013-03-09 18:29:00,-999.9,-99.9,30.22,North,32767,255.0,255.0,255,-99.99,,,0.26,Wunderground PWS Mod,2013-03-09 23:29:00,
2013-03-09 18:35:00,-999.9,-99.9,30.22,North,32767,255.0,255.0,255,-99.99,,,0.26,Wunderground PWS Mod,2013-03-09 23:35:00,
2013-03-09 18:40:00,41.1,32.1,30.23,WSW,244,255.0,255.0,70,0.00,,,0.26,Wunderground PWS Mod,2013-03-09 23:40:00,
2013-03-09 18:46:00,40.3,32.3,30.23,WSW,249,0.0,7.0,73,0.00,,,0.26,Wunderground PWS Mod,2013-03-09 23:46:00,
2013-03-09 18:51:00,39.7,32.4,30.23,WSW,249,0.0,7.0,75,0.00,,,0.26,Wunderground PWS Mod,2013-03-09 23:51:00,
2013-03-09 18:56:00,39.1,32.5,30.23,WSW,253,0.0,7.0,77,0.00,,,0.26,Wunderground PWS Mod,2013-03-09 23:56:00,
2013-03-09 19:02:00,38.7,32.4,30.23,WSW,250,0.0,7.0,78,0.00,,,0.26,Wunderground PWS Mod,2013-03-10 00:02:00,
2013-03-09 19:07:00,38.4,32.8,30.24,West,259,0.0,7.0,80,0.00,,,0.26,Wunderground PWS Mod,2013-03-10 00:07:00,
2013-03-09 19:12:00,38.1,32.8,30.24,WSW,250,1.0,7.0,81,0.00,,,0.26,Wunderground PWS Mod,2013-03-10 00:12:00,
2013-03-09 19:17:00,38.0,32.7,30.25,WSW,249,1.0,7.0,81,0.00,,,0.26,Wunderground PWS Mod,2013-03-10 00:17:00,
2013-03-09 19:23:00,37.8,32.5,30.25,WSW,249,0.0,7.0,81,0.00,,,0.26,Wunderground PWS Mod,2013-03-10 00:23:00,
2013-03-09 19:28:00,37.6,32.3,30.25,WSW,249,0.0,7.0,81,0.00,,,0.26,Wunderground PWS Mod,2013-03-10 00:28:00,
2013-03-09 19:34:00,37.5,32.5,30.25,WSW,249,0.0,7.0,82,0.00,,,0.26,Wunderground PWS Mod,2013-03-10 00:34:00,
2013-03-09 19:39:00,37.5,32.2,30.25,WSW,249,0.0,7.0,81,0.00,,,0.26,Wunderground PWS Mod,2013-03-10 00:39:00,
2013-03-09 19:44:00,37.4,32.4,30.25,WSW,249,0.0,7.0,82,0.00,,,0.26,Wunderground PWS Mod,2013-03-10 00:44:00,
2013-03-09 19:50:00,37.2,32.2,30.25,WSW,249,0.0,7.0,82,0.00,,,0.26,Wunderground PWS Mod,2013-03-10 00:50:00,
2013-03-09 19:56:00,37.1,32.4,30.25,WSW,249,0.0,7.0,83,0.00,,,0.26,Wunderground PWS Mod,2013-03-10 00:56:00,
2013-03-09 20:01:00,37.0,32.3,30.26,WSW,249,0.0,7.0,83,0.00,,,0.26,Wunderground PWS Mod,2013-03-10 01:01:00,
2013-03-09 20:07:00,37.0,32.3,30.26,WSW,249,0.0,0.0,83,0.00,,,0.26,Wunderground PWS Mod,2013-03-10 01:07:00,
2013-03-09 20:10:00,37.0,32.3,30.26,N/A,-737280,0.0,0.0,83,0.00,,,0.26,Wunderground PWS Mod,2013-03-10 01:10:00,
2013-03-09 20:12:00,36.9,32.2,30.26,WSW,249,0.0,0.0,83,0.00,,,0.26,Wunderground PWS Mod,2013-03-10 01:12:00,
2013-03-09 20:17:00,36.8,32.1,30.26,WSW,249,0.0,0.0,83,0.00,,,0.26,Wunderground PWS Mod,2013-03-10 01:17:00,
2013-03-09 20:23:00,36.8,32.1,30.26,WSW,249,0.0,0.0,83,0.00,,,0.26,Wunderground PWS Mod,2013-03-10 01:23:00,
2013-03-09 20:28:00,36.7,32.0,30.26,WSW,249,0.0,0.0,83,0.00,,,0.26,Wunderground PWS Mod,2013-03-10 01:28:00,
2013-03-09 20:34:00,36.6,31.9,30.26,WSW,249,0.0,0.0,83,0.00,,,0.26,Wunderground PWS Mod,2013-03-10 01:34:00,
2013-03-09 20:39:00,36.4,31.7,30.26,WSW,249,0.0,0.0,83,0.00,,,0.26,Wunderground PWS Mod,2013-03-10 01:39:00,
2013-03-09 20:44:00,36.2,31.5,30.26,WSW,249,0.0,0.0,83,0.00,,,0.26,Wunderground PWS Mod,2013-03-10 01:44:00,
2013-03-09 20:50:00,36.2,31.2,30.27,WSW,241,0.0,0.0,82,0.00,,,0.26,Wunderground PWS Mod,2013-03-10 01:50:00,
2013-03-09 20:55:00,36.7,31.7,30.27,South,174,0.0,0.0,82,0.00,,,0.26,Wunderground PWS Mod,2013-03-10 01:55:00,
2013-03-09 21:01:00,37.0,30.8,30.27,ESE,113,0.0,2.0,78,0.00,,,0.26,Wunderground PWS Mod,2013-03-10 02:01:00,
2013-03-09 21:06:00,36.9,30.7,30.27,ESE,112,0.0,0.0,78,0.00,,,0.26,Wunderground PWS Mod,2013-03-10 02:06:00,
2013-03-09 21:11:00,36.7,30.2,30.27,ESE,112,0.0,0.0,77,0.00,,,0.26,Wunderground PWS Mod,2013-03-10 02:11:00,
2013-03-09 21:16:00,36.4,29.9,30.27,ESE,112,0.0,0.0,77,0.00,,,0.26,Wunderground PWS Mod,2013-03-10 02:16:00,
2013-03-09 21:22:00,36.5,30.6,30.27,ESE,111,0.0,0.0,79,0.00,,,0.26,Wunderground PWS Mod,2013-03-10 02:22:00,
2013-03-09 21:27:00,36.6,29.7,30.27,ESE,111,0.0,0.0,76,0.00,,,0.26,Wunderground PWS Mod,2013-03-10 02:27:00,
2013-03-09 21:33:00,36.4,29.2,30.27,ESE,111,0.0,0.0,75,0.00,,,0.26,Wunderground PWS Mod,2013-03-10 02:33:00,
2013-03-09 21:38:00,36.2,29.4,30.27,ESE,111,0.0,0.0,76,0.00,,,0.26,Wunderground PWS Mod,2013-03-10 02:38:00,
2013-03-09 21:44:00,36.1,29.3,30.27,ESE,111,0.0,0.0,76,0.00,,,0.26,Wunderground PWS Mod,2013-03-10 02:44:00,
2013-03-09 21:49:00,36.2,29.4,30.27,ESE,111,0.0,0.0,76,0.00,,,0.26,Wunderground PWS Mod,2013-03-10 02:49:00,
2013-03-09 21:54:00,36.1,29.6,30.27,ESE,111,0.0,0.0,77,0.00,,,0.26,Wunderground PWS Mod,2013-03-10 02:54:00,
2013-03-09 21:59:00,36.1,29.3,30.27,ESE,111,0.0,0.0,76,0.00,,,0.26,Wunderground PWS Mod,2013-03-10 02:59:00,
2013-03-09 22:05:00,36.1,29.3,30.27,ESE,111,0.0,0.0,76,0.00,,,0.26,Wunderground PWS Mod,2013-03-10 03:05:00,
2013-03-09 22:11:00,36.1,28.9,30.27,ESE,111,0.0,0.0,75,0.00,,,0.26,Wunderground PWS Mod,2013-03-10 03:11:00,
2013-03-09 22:16:00,35.9,28.7,30.27,East,94,0.0,0.0,75,0.00,,,0.26,Wunderground PWS Mod,2013-03-10 03:16:00,
2013-03-09 22:22:00,35.7,28.6,30.27,East,94,0.0,0.0,75,0.00,,,0.26,Wunderground PWS Mod,2013-03-10 03:22:00,
2013-03-09 22:27:00,35.6,28.5,30.27,East,94,0.0,0.0,75,0.00,,,0.26,Wunderground PWS Mod,2013-03-10 03:27:00,
2013-03-09 22:32:00,35.5,28.4,30.27,East,90,0.0,0.0,75,0.00,,,0.26,Wunderground PWS Mod,2013-03-10 03:32:00,
2013-03-09 22:37:00,35.4,28.3,30.27,East,90,0.0,1.0,75,0.00,,,0.26,Wunderground PWS Mod,2013-03-10 03:37:00,
2013-03-09 22:44:00,35.2,28.4,30.27,East,90,0.0,0.0,76,0.00,,,0.26,Wunderground PWS Mod,2013-03-10 03:44:00,
2013-03-09 22:49:00,34.9,28.1,30.28,East,90,0.0,0.0,76,0.00,,,0.26,Wunderground PWS Mod,2013-03-10 03:49:00,
2013-03-09 22:54:00,34.6,28.1,30.27,East,90,0.0,0.0,77,0.00,,,0.26,Wunderground PWS Mod,2013-03-10 03:54:00,
2013-03-09 22:59:00,34.4,27.9,30.28,East,87,0.0,0.0,77,0.00,,,0.26,Wunderground PWS Mod,2013-03-10 03:59:00,
2013-03-09 23:04:00,34.2,28.1,30.28,East,87,0.0,0.0,78,0.00,,,0.26,Wunderground PWS Mod,2013-03-10 04:04:00,
2013-03-09 23:10:00,33.9,27.8,30.28,East,87,0.0,0.0,78,0.00,,,0.26,Wunderground PWS Mod,2013-03-10 04:10:00,
2013-03-09 23:15:00,33.7,27.9,30.28,East,87,0.0,0.0,79,0.00,,,0.26,Wunderground PWS Mod,2013-03-10 04:15:00,
2013-03-09 23:21:00,33.7,28.8,30.28,East,87,0.0,0.0,82,0.00,,,0.26,Wunderground PWS Mod,2013-03-10 04:21:00,
2013-03-09 23:26:00,33.8,28.3,30.28,East,87,0.0,0.0,80,0.00,,,0.26,Wunderground PWS Mod,2013-03-10 04:26:00,
2013-03-09 23:32:00,33.7,27.9,30.29,East,87,0.0,0.0,79,0.00,,,0.26,Wunderground PWS Mod,2013-03-10 04:32:00,
2013-03-09 23:37:00,33.4,27.9,30.29,East,87,0.0,0.0,80,0.00,,,0.26,Wunderground PWS Mod,2013-03-10 04:37:00,
2013-03-09 23:42:00,33.3,27.8,30.30,East,87,0.0,0.0,80,0.00,,,0.26,Wunderground PWS Mod,2013-03-10 04:42:00,
2013-03-09 23:47:00,33.2,28.0,30.30,East,87,0.0,0.0,81,0.00,,,0.26,Wunderground PWS Mod,2013-03-10 04:47:00,
2013-03-09 23:53:00,33.1,27.9,30.30,East,87,0.0,0.0,81,0.00,,,0.26,Wunderground PWS Mod,2013-03-10 04:53:00,
2013-03-09 23:58:00,33.0,28.1,30.30,East,87,0.0,0.0,82,0.00,,,0.26,Wunderground PWS Mod,2013-03-10 04:58:00,